Regional Weather Roundup
Issued by NWS Wakefield, VA

Home | Current Version | Previous Version | Text Only | Print | Product List | Glossary Off
Versions: 1 2 3 4 5 6 7 8 9 10 11 12 13 14 15 16 17 18 19 20 21 22 23 24 25 26 27

000
ASUS41 KAKQ 202014
RWRAKQ

REGIONAL WEATHER ROUNDUP
NATIONAL WEATHER SERVICE WAKEFIELD VA
300 PM EST MON FEB 20 2017

Note: "fair" indicates few or no clouds below 12,000 feet with no
significant weather and/or obstructions to visibility. * = Denotes
station may not report precipitation (e.g., rain,snow,etc.),
thunder or fog.

VAZ042-051-052>054-056-202100-
NORTHERN VIRGINIA

CITY           SKY/WX    TMP DP  RH WIND       PRES   REMARKS
WASH NATIONAL  MOSUNNY   67  33  28 NW5       30.19R
DULLES         MOSUNNY   64  34  32 N10       30.19R
FORT BELVOIR   SUNNY     67  28  22 NW12G20   30.18R
QUANTICO       SUNNY     66  36  32 NE14      30.19S
FREDERICKSBRG* SUNNY     68  41  36 NE6       30.17S
STAFFORD*      SUNNY     67  36  32 NW12      30.22S
WARRENTON      SUNNY     69  32  25 N8        30.18S
CULPEPER*      SUNNY     69  38  32 N5        30.19S
MANASSAS*      SUNNY     67  38  34 N9        30.19S
LEESBURG*      SUNNY     64  39  39 NE10G18   30.20S
WINCHESTER     SUNNY     64  36  34 NW8       30.18F
FRONT ROYAL*   CLEAR     66  37  34 N6        30.17F
LURAY*         CLEAR     68  37  32 E3        30.17F
$$

VAZ048-049-060>072-079>083-202100-
CENTRAL AND SOUTH CENTRAL VIRGINIA

CITY           SKY/WX    TMP DP  RH WIND       PRES   REMARKS
RICHMOND       MOSUNNY   69  39  33 N7        30.17S
CHESTERFIELD*  FAIR      70  32  24 N9        30.19S
PETERSBURG*    SUNNY     69  31  25 NW5       30.18R
HANOVER        SUNNY     69  37  30 CALM      30.19S
TAPPAHANNOCK*  SUNNY     67  24  19 N8        30.18S
QUINTON*       FAIR      67  39  35 N8        30.17S
CHARLOTTSVILLE SUNNY     73  32  22 E8        30.16F
GORDONSVILLE*  CLEAR     69  35  29 NE8       30.16F
ORANGE*        SUNNY     68  36  30 CALM      30.18F
LOUISA*        SUNNY     73  37  27 N5        30.16S
BUMPASS*       FAIR      68  35  30 W6        30.17F
FARMVILLE*     SUNNY     71  34  25 CALM      30.16S
CREWE*         FAIR      68  37  32 CALM      30.17S
FORT PICKETT*  FAIR      69  23  18 NW5       30.17S
CHASE CITY*    FAIR      69  31  24 CALM      30.17S
CLARKSVILLE*   FAIR      68  37  32 E3        30.17F
SOUTH HILL*    SUNNY     69  36  30 CALM      30.22S
LAWRENCEVILLE* FAIR      70  35  27 CALM      30.17S
EMPORIA*       SUNNY     70  36  28 N5        30.18S
$$

VAZ088>098-202100-
SOUTHEAST VIRGINIA

CITY           SKY/WX    TMP DP  RH WIND       PRES   REMARKS
NORFOLK        SUNNY     59  37  44 NE10      30.18S
VIRGINIA BEACH MOSUNNY   63  36  36 NE13      30.17S
NORFOLK NAVAL  MOSUNNY   61  35  37 NE10      30.20R
WEST POINT*    SUNNY     66  34  29 NW6       30.19S
SALUDA*        FAIR      59  40  48 E8        30.18S
NEWPORT NEWS   SUNNY     61  38  42 E12       30.19R
LANGLEY AFB    SUNNY     59  40  49 NE12      30.18S
FORT EUSTIS    SUNNY     69  38  32 E6        30.15S
WILLIAMSBURG*  SUNNY     73  41  31 NE3       30.18S
HR EXEC AP*    FAIR      66  37  34 E7        30.16S
FRANKLIN*      SUNNY     68  35  29 N7        30.17S
US460-WAKEFLD  SUNNY     69  38  32 VRB6      30.17S
$$

VAZ020-022-025-037-045-202100-
WEST CENTRAL AND SOUTHWEST VIRGINIA

CITY           SKY/WX    TMP DP  RH WIND       PRES   REMARKS
STAUNTON*      SUNNY     66  34  30 N6        30.19F
WAYNESBORO*    CLEAR     67  26  21 N7        30.18S
HOT SPRINGS VA CLOUDY    61  12  15 CALM      30.23R
LYNCHBURG      PTSUNNY   69  32  25 S6        30.18F
DANVILLE       MOSUNNY   70  39  32 CALM      30.17F
SOUTH BOSTON*  FAIR      70  33  25 CALM      30.17S
MARTINSVILLE   CLOUDY    71  30  21 CALM      30.19S
ROANOKE        CLOUDY    70  32  24 SE6       30.18F
BLACKSBURG     MOSUNNY   68  29  23 CALM      30.21S
DUBLIN*        MOSUNNY   69  23  17 N3        30.19S
MARION*        SUNNY     71  26  18 NE5       30.20R
HILLSVILLE*    CLOUDY    68  33  26 CALM      30.18S
RICHLANDS*     FAIR      68  25  20 CALM      30.18R
WISE*          MOSUNNY   68  19  15 CALM      30.19F
ABINGDON*      CLOUDY    71  26  18 NW6       30.17R
$$

MDZ021>025-VAZ099-100-202100-
SOUTHERN MARYLAND AND THE DELMARVA PENINSULA

CITY           SKY/WX    TMP DP  RH WIND       PRES   REMARKS
PATUXENT RIVER SUNNY     59  35  40 N13       30.19R
BAY BRIDGE APT SUNNY     61  34  36 N7        30.20R
LEONARDTOWN    SUNNY     59  32  36 NE6       30.21R
DOVER          SUNNY     59  37  44 N15       30.17S
GEORGETOWN     SUNNY     62  34  35 NE8       30.18R
EASTON         MOSUNNY   63  30  29 NE12      30.22S
CAMBRIDGE      NOT AVBL
SALISBURY      SUNNY     63  33  32 NW8       30.17R
OCEAN CITY     SUNNY     58  34  40 NE16G24   30.17S
WALLOPS ISLAND SUNNY     55  39  54 E8        30.19R
ACCOMACK*      SUNNY     61  36  39 N8        30.18S
$$

NCZ012>017-030>032-202100-
NORTH CENTRAL AND EASTERN NORTH CAROLINA

CITY           SKY/WX    TMP DP  RH WIND       PRES   REMARKS
ROANOKE RAPIDS FAIR      70  37  30 N5        30.17S
RALEIGH        PTSUNNY   72  31  22 VRB3      30.17F
ELIZABETH CITY SUNNY     64  40  41 NE12      30.17F
AHOSKIE*         N/A     69  32  25 NE5       30.17R
EDENTON*       SUNNY     64  45  48 SE9       30.17F
CURRITUCK*     SUNNY     60  39  46 NE7       30.19S
KILL DEVIL HLS NOT AVBL
MANTEO         SUNNY     56  40  53 NE9       30.19R
CAPE HATTERAS  SUNNY     60  46  59 N8        30.18R
TARBORO*       NOT AVBL
GOLDSBORO      SUNNY     73  31  21 E5        30.14F
WASHINGTON     SUNNY     69  36  28 NE8       30.16S
GREENVILLE     SUNNY     72  34  25 NE10      30.17S
NEW BERN       SUNNY     70  41  34 E8        30.17R
WILMINGTON     SUNNY     69  45  41 SE8       30.15S
$$

VAZ048-202100-
ELSEWHERE

CITY           SKY/WX    TMP DP  RH WIND       PRES   REMARKS
HARRISBURG PA  MOSUNNY   58  28  32 N12       30.22S
BALTIMORE      MOSUNNY   63  29  27 N9        30.19R
ANNAPOLIS      SUNNY     58  33  39 NE12      30.20R
ANDREWS AFB    SUNNY     65  32  29 VRB6      30.18R
PHILADELPHIA   MOSUNNY   57  24  28 NW16G22   30.21R
HENDERSON NC   SUNNY     67  35  30 CALM      30.17F
GREENSBORO     CLOUDY    71  37  28 S5        30.15F
ROCKY MOUNT    SUNNY     70  36  28 N5        30.16F
$$

VAZ100-202100-
MARINE

STATION/POSITION TIME  TEMP    WIND        PRES    WAVE   SWELL
                       AIR SEA DIR/SP/G            HT/PER HT/PER
                 (UTC) (F)     (DEG/KT/KT) (MB)    (FT/S) (FT/S)
CAPE MAY NJ      1948   49 43  320/ 10/ 13 1021.3F
LEWES DE         1948   49 43  340/ 13/ 15 1022.0F
OCEAN-CITY-INLET 1948   56 43   40/  6/ 12 1022.0S
WACHAPREAGUE VA  1948   53 50  100/  5/  9 1022.2R
THOMAS POINT MD  2000   53 44   30/  9/ 10   N/A
GOOSES REEF MD   2000   51 44  300/  4/  4 1023.4
COVE POINT MD    1948   50     360/  8/  9 1023.0R
SOLOMONS ISLAND  1948   57 43   20/  5/  8   N/A
BISHOPS HEAD MD  1948   60 50   10/  7/ 11 1022.3R
PINEY POINT MD   1948          140/  4/  4   N/A
POTOMAC MD       2000   54 44   40/  8/ 10 1021.5    0
CAMBRIDGE MD     1948   55 40  340/ 12/ 14 1021.4R
LEWISETTA VA     1948   52 45   90/  4/  5 1022.0R
RAPPAHANNOCK LGT 1948          360/ 10/ 10 1022.9R
YORK RVR RNG VA  1948   50      60/ 12/ 14 1021.4R
YORKTOWN VA      1948   52 45   90/ 11/ 13 1021.9R
JAMESTOWN VA     2000   63 50  270/  6/  8   N/A     0
DOMINION TERM VA 1948   55      80/ 10/ 13 1022.1R
KIPTOPEKE VA     1948      47   10/  9/ 13   N/A
CHES BAY BRIDGE  1948   53 45   30/ 15/ 17 1021.8F
CAPE HENRY VA    1948   54      60/  3/  5   N/A
WILLOUBY STN VA  1948   51      40/  8/  9 1023.1R
S CRANEY ISL VA  1948   56      50/ 12/ 13 1021.8S
CAPE HENRY BUOY  1942      49                N/A     1/ 7
OFFSHORE WE BUOY 1951      49                N/A     1/13
64NM E OF VA BCH 1950   52 52   30/ 12/ 14 1021.3F   3/ 4
DUCK PIER NC     1948   50 49   40/  9/ 10 1021.7S
44100 DUCK FRF   1935      49                N/A     1/ 3
44056 DUCK FRF   1930      49                N/A     1/ 6
OREGON INLET NC  1948           10/  9/ 13   N/A
HATTERAS NC      1948   55 57   10/ 14/ 16 1021.5R
DIAMOND SHLS NC  1950   60 64   10/ 17/ 21 1021.3R   4/ 6   2/ 7
CAPE LOOKOUT NC  2000   58      40/ 15/ 16 1021.5R
$$




USA.gov is the U.S. government's official web portal to all federal, state and local government web resources and services.